QPF
0.05 0.05 0.07 0.06 0.05 0.05 0.05 0.07 0.09 0.09 0.08 0.04 0.03 0.03 0.04 0.03 0.03 0.04 0.03 0.04 0.03 0.03 0.02 0.02 0.03 0.03 0.03 0.03 0.02 0.02 0.02 0.02 0.03 0.03 0.01 0.01 0.01 0.01 0.01 0.01 0.01 0.01 0.02
0.04 0.03 0.04 0.05 0.06 0.05 0.06 0.09 0.08 0.07 0.06 0.04 0.03 0.03 0.03 0.03 0.03 0.03 0.03 0.03 0.03 0.03 0.02 0.02 0.02 0.02 0.03 0.02 0.02 0.02 0.01 0.01 0.02 0.02 0.01 0.01 0.01 0.01 0.01 0.01 0.00 0.01 0.01
0.04 0.04 0.04 0.04 0.04 0.04 0.07 0.10 0.09 0.08 0.06 0.05 0.04 0.04 0.03 0.02 0.03 0.04 0.04 0.03 0.03 0.03 0.03 0.02 0.02 0.02 0.02 0.02 0.02 0.02 0.02 0.01 0.02 0.02 0.01 0.01 0.00 0.00 0.01 0.01 0.01 0.01 0.00
0.04 0.04 0.04 0.04 0.04 0.05 0.06 0.08 0.07 0.07 0.07 0.06 0.05 0.05 0.05 0.05 0.04 0.04 0.04 0.04 0.03 0.04 0.04 0.04 0.03 0.03 0.02 0.02 0.02 0.02 0.02 0.02 0.02 0.02 0.02 0.01 0.01 0.00 0.01 0.01 0.01 0.01 0.01
0.05 0.04 0.05 0.05 0.05 0.05 0.06 0.05 0.06 0.06 0.07 0.07 0.07 0.06 0.05 0.05 0.06 0.05 0.05 0.05 0.05 0.04 0.03 0.03 0.02 0.02 0.02 0.02 0.02 0.02 0.02 0.02 0.02 0.02 0.02 0.01 0.02 0.02 0.01 0.02 0.02 0.01 0.01
0.07 0.09 0.08 0.07 0.06 0.05 0.04 0.05 0.06 0.07 0.07 0.06 0.07 0.06 0.05 0.04 0.05 0.07 0.08 0.07 0.08 0.07 0.05 0.03 0.02 0.01 0.02 0.02 0.02 0.02 0.02 0.03 0.03 0.03 0.02 0.02 0.02 0.03 0.03 0.02 0.02 0.02 0.01
0.07 0.07 0.07 0.07 0.08 0.06 0.05 0.06 0.07 0.07 0.07 0.06 0.06 0.06 0.06 0.05 0.04 0.05 0.05 0.07 0.08 0.08 0.07 0.05 0.03 0.02 0.03 0.03 0.03 0.03 0.02 0.03 0.03 0.03 0.03 0.03 0.03 0.04 0.04 0.03 0.03 0.02 0.02
0.06 0.06 0.06 0.06 0.08 0.08 0.07 0.06 0.06 0.07 0.07 0.09 0.07 0.06 0.06 0.06 0.04 0.03 0.03 0.03 0.04 0.04 0.04 0.04 0.04 0.03 0.02 0.02 0.03 0.03 0.04 0.04 0.04 0.04 0.04 0.04 0.03 0.03 0.03 0.03 0.03 0.03 0.02
0.04 0.04 0.04 0.05 0.05 0.06 0.06 0.06 0.06 0.07 0.08 0.08 0.06 0.05 0.05 0.04 0.03 0.04 0.04 0.02 0.03 0.03 0.03 0.03 0.04 0.04 0.03 0.02 0.02 0.04 0.04 0.05 0.04 0.04 0.04 0.03 0.02 0.01 0.02 0.02 0.02 0.02 0.02
0.02 0.02 0.03 0.04 0.05 0.04 0.05 0.06 0.06 0.07 0.07 0.06 0.05 0.04 0.04 0.03 0.02 0.03 0.03 0.02 0.03 0.03 0.03 0.03 0.04 0.04 0.03 0.02 0.02 0.03 0.03 0.03 0.02 0.02 0.02 0.02 0.02 0.02 0.01 0.01 0.01 0.01 0.01
0.04 0.04 0.03 0.05 0.05 0.06 0.07 0.06 0.06 0.06 0.06 0.05 0.04 0.03 0.03 0.02 0.02 0.02 0.02 0.02 0.03 0.04 0.04 0.05 0.05 0.04 0.04 0.03 0.02 0.02 0.02 0.01 0.01 0.01 0.01 0.01 0.01 0.01 0.01 0.01 0.01 0.01 0.01
0.04 0.04 0.04 0.04 0.05 0.05 0.06 0.05 0.05 0.05 0.04 0.04 0.04 0.04 0.04 0.04 0.04 0.04 0.05 0.05 0.04 0.04 0.05 0.04 0.04 0.06 0.05 0.05 0.03 0.02 0.01 0.01 0.01 0.01 0.01 0.01 0.01 0.01 0.01 0.01 0.01 0.01 0.01
0.03 0.03 0.03 0.04 0.06 0.07 0.05 0.05 0.04 0.03 0.03 0.03 0.03 0.04 0.04 0.05 0.04 0.04 0.05 0.06 0.07 0.05 0.04 0.04 0.04 0.04 0.04 0.03 0.02 0.01 0.01 0.01 0.01 0.01 0.01 0.00 0.01 0.01 0.01 0.01 0.01 0.01 0.01
0.05 0.05 0.05 0.04 0.03 0.04 0.04 0.04 0.03 0.03 0.02 0.02 0.02 0.03 0.03 0.03 0.03 0.03 0.04 0.04 0.04 0.04 0.03 0.03 0.02 0.02 0.01 0.01 0.01 0.01 0.00 0.00 0.00 0.00 0.00 0.00 0.00 0.01 0.01 0.01 0.01 0.01 0.01
0.05 0.04 0.03 0.03 0.03 0.03 0.03 0.03 0.04 0.03 0.03 0.03 0.04 0.04 0.03 0.04 0.04 0.04 0.03 0.03 0.03 0.03 0.02 0.02 0.02 0.01 0.01 0.01 0.01 0.01 0.01 0.01 0.01 0.01 0.01 0.01 0.01 0.01 0.01 0.01 0.01 0.01 0.02
0.05 0.04 0.04 0.04 0.04 0.05 0.05 0.05 0.05 0.04 0.03 0.03 0.03 0.04 0.04 0.05 0.05 0.04 0.04 0.04 0.03 0.03 0.04 0.04 0.04 0.03 0.02 0.02 0.01 0.01 0.01 0.01 0.01 0.01 0.01 0.01 0.01 0.01 0.01 0.01 0.01 0.01 0.02
0.06 0.06 0.04 0.04 0.04 0.03 0.03 0.04 0.04 0.05 0.06 0.05 0.04 0.04 0.04 0.05 0.06 0.05 0.05 0.05 0.04 0.04 0.04 0.04 0.04 0.04 0.03 0.02 0.02 0.02 0.02 0.02 0.02 0.02 0.03 0.02 0.02 0.02 0.02 0.02 0.02 0.02 0.02
0.05 0.07 0.05 0.04 0.03 0.02 0.02 0.02 0.03 0.04 0.06 0.07 0.06 0.06 0.06 0.06 0.06 0.07 0.07 0.06 0.05 0.05 0.06 0.06 0.06 0.06 0.06 0.05 0.04 0.04 0.04 0.03 0.03 0.03 0.03 0.03 0.03 0.03 0.03 0.03 0.03 0.03 0.02
0.04 0.05 0.05 0.05 0.05 0.03 0.03 0.03 0.04 0.05 0.06 0.07 0.07 0.07 0.08 0.07 0.07 0.07 0.07 0.06 0.05 0.05 0.05 0.06 0.06 0.06 0.06 0.06 0.06 0.05 0.05 0.05 0.04 0.04 0.04 0.05 0.04 0.04 0.04 0.03 0.03 0.02 0.02
0.05 0.05 0.04 0.04 0.04 0.04 0.04 0.04 0.04 0.04 0.05 0.06 0.07 0.06 0.07 0.06 0.05 0.06 0.05 0.04 0.04 0.04 0.03 0.03 0.03 0.03 0.04 0.04 0.04 0.04 0.04 0.04 0.04 0.03 0.03 0.03 0.03 0.02 0.02 0.02 0.02 0.02 0.02
0.04 0.04 0.04 0.03 0.03 0.03 0.04 0.05 0.04 0.05 0.05 0.05 0.05 0.05 0.05 0.05 0.06 0.06 0.05 0.04 0.03 0.03 0.03 0.02 0.02 0.02 0.02 0.02 0.03 0.03 0.03 0.03 0.03 0.03 0.03 0.03 0.03 0.03 0.02 0.02 0.02 0.02 0.02
0.04 0.04 0.04 0.03 0.03 0.04 0.05 0.05 0.04 0.04 0.04 0.04 0.05 0.05 0.05 0.04 0.04 0.03 0.04 0.04 0.04 0.04 0.03 0.03 0.03 0.03 0.03 0.03 0.03 0.03 0.03 0.04 0.03 0.03 0.04 0.03 0.03 0.03 0.03 0.03 0.03 0.03 0.03
0.06 0.05 0.05 0.05 0.05 0.05 0.07 0.08 0.07 0.05 0.04 0.04 0.04 0.04 0.05 0.05 0.05 0.06 0.07 0.06 0.06 0.05 0.05 0.04 0.04 0.04 0.04 0.03 0.03 0.03 0.03 0.03 0.03 0.03 0.03 0.03 0.04 0.04 0.04 0.04 0.04 0.04 0.04
0.07 0.06 0.06 0.07 0.06 0.06 0.06 0.06 0.06 0.05 0.04 0.04 0.04 0.05 0.06 0.07 0.08 0.08 0.07 0.06 0.06 0.05 0.05 0.04 0.03 0.03 0.02 0.02 0.02 0.02 0.03 0.03 0.04 0.04 0.04 0.04 0.04 0.04 0.04 0.03 0.03 0.03 0.03
0.06 0.06 0.06 0.07 0.05 0.04 0.04 0.04 0.04 0.03 0.03 0.04 0.05 0.05 0.06 0.05 0.05 0.05 0.05 0.05 0.04 0.03 0.03 0.03 0.04 0.04 0.04 0.04 0.05 0.06 0.08 0.08 0.07 0.06 0.05 0.05 0.05 0.04 0.04 0.04 0.04 0.04 0.03
0.06 0.07 0.06 0.06 0.05 0.03 0.03 0.03 0.02 0.02 0.03 0.03 0.03 0.03 0.03 0.04 0.04 0.04 0.04 0.04 0.04 0.04 0.04 0.05 0.06 0.06 0.06 0.06 0.06 0.06 0.06 0.05 0.04 0.04 0.04 0.04 0.04 0.04 0.03 0.03 0.03 0.03 0.02
MSLP
1010.23 1010.71 1011.26 1011.87 1012.48 1013.07 1013.60 1014.06 1014.47 1014.82 1015.13 1015.42 1015.69 1015.94 1016.17 1016.37 1016.53 1016.65 1016.72 1016.76 1016.77 1016.77 1016.77 1016.79 1016.82 1016.87 1016.92 1016.97 1017.00 1016.99 1016.95 1016.88 1016.78 1016.66 1016.55 1016.47 1016.43 1016.46 1016.54 1016.69 1016.89 1017.13 1017.38
1010.02 1010.42 1010.90 1011.43 1011.96 1012.48 1012.96 1013.39 1013.78 1014.13 1014.45 1014.76 1015.05 1015.32 1015.57 1015.79 1015.97 1016.12 1016.22 1016.29 1016.34 1016.37 1016.41 1016.47 1016.53 1016.62 1016.71 1016.79 1016.86 1016.91 1016.92 1016.89 1016.83 1016.75 1016.66 1016.58 1016.52 1016.49 1016.49 1016.54 1016.63 1016.75 1016.88
1009.77 1010.13 1010.54 1010.99 1011.45 1011.89 1012.31 1012.70 1013.07 1013.41 1013.73 1014.04 1014.34 1014.62 1014.88 1015.12 1015.32 1015.48 1015.61 1015.71 1015.79 1015.86 1015.94 1016.03 1016.14 1016.27 1016.40 1016.53 1016.66 1016.76 1016.82 1016.86 1016.86 1016.83 1016.77 1016.71 1016.64 1016.58 1016.53 1016.49 1016.47 1016.46 1016.47
1009.52 1009.85 1010.21 1010.58 1010.96 1011.33 1011.68 1012.02 1012.35 1012.66 1012.97 1013.28 1013.58 1013.87 1014.14 1014.38 1014.60 1014.77 1014.91 1015.03 1015.14 1015.24 1015.35 1015.48 1015.62 1015.78 1015.96 1016.14 1016.30 1016.46 1016.58 1016.68 1016.74 1016.77 1016.77 1016.74 1016.69 1016.62 1016.53 1016.44 1016.33 1016.23 1016.13
1009.32 1009.61 1009.92 1010.22 1010.51 1010.80 1011.07 1011.35 1011.62 1011.91 1012.20 1012.50 1012.80 1013.09 1013.36 1013.61 1013.82 1014.00 1014.15 1014.28 1014.40 1014.52 1014.66 1014.81 1014.98 1015.16 1015.36 1015.57 1015.77 1015.96 1016.12 1016.27 1016.39 1016.48 1016.53 1016.56 1016.54 1016.49 1016.41 1016.29 1016.15 1015.98 1015.81
1009.20 1009.46 1009.70 1009.92 1010.12 1010.30 1010.49 1010.69 1010.90 1011.14 1011.40 1011.68 1011.97 1012.26 1012.53 1012.78 1013.00 1013.18 1013.34 1013.48 1013.61 1013.74 1013.88 1014.04 1014.22 1014.42 1014.62 1014.84 1015.05 1015.25 1015.44 1015.61 1015.77 1015.90 1016.01 1016.09 1016.13 1016.13 1016.08 1015.98 1015.84 1015.65 1015.44
1009.23 1009.42 1009.58 1009.70 1009.78 1009.86 1009.94 1010.05 1010.19 1010.37 1010.59 1010.84 1011.12 1011.40 1011.67 1011.91 1012.13 1012.31 1012.47 1012.61 1012.75 1012.89 1013.04 1013.21 1013.39 1013.58 1013.78 1013.99 1014.19 1014.38 1014.57 1014.75 1014.92 1015.09 1015.24 1015.36 1015.46 1015.52 1015.52 1015.47 1015.36 1015.20 1014.99
1009.43 1009.53 1009.58 1009.58 1009.54 1009.49 1009.46 1009.46 1009.51 1009.61 1009.78 1009.99 1010.23 1010.49 1010.74 1010.97 1011.18 1011.36 1011.52 1011.67 1011.82 1011.97 1012.13 1012.31 1012.50 1012.69 1012.89 1013.08 1013.26 1013.44 1013.60 1013.77 1013.94 1014.11 1014.27 1014.43 1014.57 1014.69 1014.75 1014.76 1014.70 1014.59 1014.42
1009.81 1009.81 1009.73 1009.60 1009.42 1009.24 1009.07 1008.95 1008.90 1008.92 1009.00 1009.15 1009.34 1009.55 1009.77 1009.97 1010.15 1010.32 1010.47 1010.62 1010.78 1010.95 1011.14 1011.34 1011.55 1011.76 1011.97 1012.16 1012.33 1012.49 1012.64 1012.78 1012.92 1013.08 1013.24 1013.41 1013.57 1013.72 1013.83 1013.89 1013.89 1013.84 1013.72
1010.36 1010.24 1010.03 1009.76 1009.45 1009.13 1008.84 1008.60 1008.42 1008.33 1008.32 1008.37 1008.48 1008.61 1008.76 1008.90 1009.04 1009.17 1009.30 1009.45 1009.61 1009.81 1010.03 1010.27 1010.53 1010.78 1011.02 1011.24 1011.42 1011.58 1011.71 1011.83 1011.95 1012.08 1012.22 1012.37 1012.53 1012.69 1012.82 1012.92 1012.98 1012.97 1012.91
1011.04 1010.80 1010.48 1010.09 1009.66 1009.22 1008.80 1008.44 1008.14 1007.93 1007.80 1007.73 1007.71 1007.73 1007.77 1007.81 1007.86 1007.92 1008.01 1008.13 1008.30 1008.52 1008.78 1009.08 1009.39 1009.71 1010.01 1010.28 1010.50 1010.68 1010.81 1010.93 1011.02 1011.11 1011.22 1011.34 1011.48 1011.62 1011.76 1011.88 1011.96 1012.01 1012.01
1011.80 1011.47 1011.05 1010.57 1010.05 1009.51 1009.00 1008.53 1008.12 1007.78 1007.51 1007.29 1007.12 1006.98 1006.86 1006.77 1006.69 1006.65 1006.66 1006.73 1006.87 1007.10 1007.39 1007.74 1008.12 1008.51 1008.89 1009.22 1009.49 1009.71 1009.87 1009.98 1010.06 1010.13 1010.20 1010.28 1010.38 1010.50 1010.62 1010.75 1010.86 1010.94 1011.00
1012.58 1012.18 1011.72 1011.18 1010.61 1010.02 1009.44 1008.89 1008.39 1007.93 1007.52 1007.14 1006.79 1006.47 1006.16 1005.88 1005.64 1005.45 1005.34 1005.33 1005.42 1005.62 1005.92 1006.30 1006.73 1007.18 1007.61 1008.01 1008.34 1008.59 1008.78 1008.89 1008.97 1009.01 1009.05 1009.10 1009.16 1009.25 1009.37 1009.50 1009.64 1009.77 1009.89
1013.33 1012.92 1012.44 1011.90 1011.33 1010.73 1010.13 1009.54 1008.96 1008.41 1007.86 1007.33 1006.80 1006.27 1005.76 1005.28 1004.85 1004.49 1004.23 1004.09 1004.09 1004.23 1004.49 1004.85 1005.29 1005.76 1006.22 1006.64 1007.00 1007.28 1007.47 1007.59 1007.65 1007.68 1007.69 1007.71 1007.76 1007.84 1007.96 1008.11 1008.29 1008.48 1008.68
1014.03 1013.63 1013.18 1012.69 1012.16 1011.60 1011.02 1010.43 1009.82 1009.20 1008.56 1007.89 1007.20 1006.49 1005.78 1005.10 1004.47 1003.92 1003.49 1003.21 1003.08 1003.11 1003.29 1003.58 1003.96 1004.39 1004.82 1005.21 1005.54 1005.79 1005.96 1006.06 1006.10 1006.10 1006.10 1006.11 1006.16 1006.25 1006.39 1006.59 1006.83 1007.10 1007.41
1014.67 1014.31 1013.92 1013.50 1013.05 1012.56 1012.05 1011.50 1010.91 1010.27 1009.57 1008.81 1008.00 1007.15 1006.28 1005.43 1004.62 1003.91 1003.31 1002.87 1002.59 1002.48 1002.53 1002.70 1002.96 1003.27 1003.59 1003.88 1004.12 1004.28 1004.38 1004.41 1004.40 1004.37 1004.35 1004.36 1004.42 1004.55 1004.75 1005.01 1005.34 1005.72 1006.13
1015.25 1014.95 1014.63 1014.30 1013.94 1013.56 1013.14 1012.67 1012.13 1011.51 1010.81 1010.02 1009.14 1008.21 1007.24 1006.28 1005.35 1004.50 1003.77 1003.19 1002.77 1002.51 1002.39 1002.39 1002.48 1002.61 1002.76 1002.88 1002.95 1002.97 1002.94 1002.86 1002.77 1002.69 1002.64 1002.65 1002.74 1002.91 1003.18 1003.53 1003.96 1004.44 1004.97
1015.81 1015.55 1015.30 1015.05 1014.80 1014.52 1014.21 1013.83 1013.37 1012.82 1012.16 1011.39 1010.53 1009.58 1008.58 1007.58 1006.60 1005.68 1004.87 1004.19 1003.65 1003.24 1002.96 1002.78 1002.67 1002.59 1002.51 1002.41 1002.27 1002.09 1001.89 1001.67 1001.46 1001.30 1001.21 1001.21 1001.32 1001.54 1001.88 1002.31 1002.84 1003.42 1004.05
1016.36 1016.12 1015.92 1015.74 1015.57 1015.38 1015.17 1014.89 1014.53 1014.07 1013.49 1012.79 1011.99 1011.10 1010.15 1009.17 1008.21 1007.31 1006.48 1005.76 1005.14 1004.64 1004.22 1003.87 1003.57 1003.27 1002.96 1002.62 1002.25 1001.85 1001.45 1001.06 1000.72 1000.46 1000.31 1000.29 1000.40 1000.66 1001.04 1001.54 1002.13 1002.78 1003.47
1016.92 1016.68 1016.49 1016.35 1016.23 1016.11 1015.97 1015.78 1015.51 1015.14 1014.66 1014.07 1013.37 1012.58 1011.73 1010.86 1009.99 1009.15 1008.38 1007.68 1007.06 1006.50 1006.00 1005.53 1005.07 1004.58 1004.07 1003.52 1002.93 1002.32 1001.73 1001.17 1000.70 1000.33 1000.10 1000.03 1000.13 1000.38 1000.78 1001.30 1001.91 1002.58 1003.29
1017.49 1017.24 1017.04 1016.89 1016.79 1016.69 1016.59 1016.45 1016.25 1015.96 1015.58 1015.09 1014.51 1013.86 1013.15 1012.41 1011.68 1010.97 1010.30 1009.68 1009.11 1008.57 1008.04 1007.51 1006.95 1006.35 1005.68 1004.97 1004.21 1003.44 1002.69 1001.99 1001.39 1000.92 1000.62 1000.49 1000.53 1000.75 1001.12 1001.61 1002.19 1002.83 1003.48
1018.10 1017.80 1017.57 1017.39 1017.25 1017.15 1017.05 1016.93 1016.76 1016.52 1016.21 1015.81 1015.35 1014.82 1014.25 1013.66 1013.08 1012.51 1011.98 1011.48 1011.00 1010.52 1010.03 1009.51 1008.92 1008.27 1007.53 1006.73 1005.88 1005.01 1004.15 1003.36 1002.67 1002.12 1001.73 1001.53 1001.51 1001.66 1001.95 1002.37 1002.86 1003.40 1003.95
1018.75 1018.39 1018.10 1017.87 1017.69 1017.54 1017.40 1017.25 1017.08 1016.86 1016.58 1016.24 1015.85 1015.42 1014.97 1014.51 1014.06 1013.63 1013.23 1012.86 1012.49 1012.11 1011.70 1011.23 1010.68 1010.05 1009.32 1008.51 1007.64 1006.74 1005.85 1005.02 1004.28 1003.67 1003.22 1002.94 1002.84 1002.89 1003.08 1003.37 1003.74 1004.15 1004.56
1019.43 1019.03 1018.69 1018.39 1018.14 1017.93 1017.73 1017.53 1017.32 1017.07 1016.79 1016.47 1016.12 1015.74 1015.36 1014.99 1014.64 1014.31 1014.02 1013.75 1013.48 1013.20 1012.87 1012.49 1012.02 1011.46 1010.79 1010.04 1009.21 1008.35 1007.49 1006.67 1005.92 1005.28 1004.79 1004.44 1004.25 1004.19 1004.25 1004.41 1004.63 1004.87 1005.12
1020.16 1019.73 1019.33 1018.98 1018.67 1018.38 1018.12 1017.85 1017.58 1017.29 1016.98 1016.65 1016.29 1015.93 1015.58 1015.24 1014.93 1014.66 1014.43 1014.22 1014.01 1013.80 1013.56 1013.25 1012.87 1012.39 1011.82 1011.16 1010.42 1009.64 1008.84 1008.06 1007.34 1006.70 1006.18 1005.78 1005.50 1005.33 1005.27 1005.28 1005.35 1005.44 1005.54
1020.91 1020.47 1020.05 1019.66 1019.30 1018.96 1018.63 1018.31 1017.98 1017.64 1017.29 1016.92 1016.54 1016.16 1015.79 1015.45 1015.14 1014.87 1014.64 1014.44 1014.26 1014.07 1013.87 1013.61 1013.30 1012.90 1012.42 1011.85 1011.22 1010.53 1009.81 1009.10 1008.41 1007.79 1007.25 1006.80 1006.45 1006.19 1006.01 1005.90 1005.83 1005.79 1005.76
Thickness
5751 5749 5747 5746 5744 5741 5739 5738 5736 5734 5732 5731 5730 5728 5727 5726 5726 5724 5726 5724 5723 5723 5723 5722 5721 5721 5723 5724 5723 5723 5721 5719 5715 5719 5721 5719 5714 5713 5713 5711 5711 5708 5708
5752 5749 5747 5745 5743 5740 5738 5737 5735 5733 5732 5730 5729 5727 5726 5726 5725 5724 5724 5724 5723 5722 5721 5720 5720 5720 5718 5720 5720 5720 5718 5716 5714 5712 5715 5716 5712 5711 5710 5708 5711 5711 5709
5751 5748 5745 5744 5741 5739 5738 5736 5735 5733 5731 5730 5728 5726 5726 5725 5723 5723 5723 5723 5722 5721 5720 5718 5718 5717 5715 5717 5715 5716 5716 5716 5713 5712 5712 5713 5712 5711 5708 5707 5709 5706 5707
5750 5747 5744 5743 5741 5739 5737 5736 5734 5732 5731 5729 5727 5726 5725 5724 5723 5722 5721 5720 5720 5719 5718 5717 5717 5716 5714 5713 5712 5711 5711 5711 5710 5710 5711 5711 5708 5708 5705 5706 5706 5707 5706
5747 5745 5743 5742 5740 5738 5736 5734 5733 5731 5730 5728 5726 5725 5724 5723 5723 5721 5719 5718 5717 5716 5716 5715 5715 5714 5711 5710 5712 5711 5709 5708 5709 5708 5707 5707 5706 5703 5703 5704 5703 5703 5703
5745 5743 5742 5740 5738 5736 5735 5733 5731 5729 5728 5726 5725 5724 5723 5724 5721 5718 5717 5717 5715 5714 5713 5713 5713 5710 5707 5704 5704 5703 5702 5703 5704 5703 5704 5702 5700 5701 5699 5699 5698 5697 5695
5742 5741 5739 5737 5735 5734 5733 5732 5729 5728 5726 5724 5723 5723 5722 5720 5717 5714 5712 5713 5713 5713 5712 5711 5713 5713 5707 5707 5702 5698 5698 5696 5695 5697 5699 5698 5697 5697 5694 5693 5691 5690 5689
5739 5738 5737 5735 5733 5732 5730 5729 5727 5726 5724 5722 5722 5721 5719 5718 5713 5711 5709 5710 5712 5711 5711 5710 5709 5709 5708 5704 5703 5702 5701 5699 5695 5693 5694 5694 5694 5692 5689 5687 5686 5684 5684
5737 5736 5735 5732 5730 5728 5726 5725 5724 5723 5721 5720 5720 5719 5717 5715 5711 5708 5706 5709 5709 5709 5709 5709 5707 5705 5701 5698 5697 5697 5696 5695 5693 5690 5687 5686 5684 5682 5681 5681 5681 5679 5679
5734 5734 5733 5730 5728 5726 5724 5723 5722 5720 5719 5718 5717 5717 5716 5714 5710 5706 5703 5708 5708 5708 5707 5706 5702 5700 5696 5692 5693 5692 5689 5689 5690 5688 5683 5681 5680 5678 5674 5673 5675 5674 5674
5732 5731 5729 5727 5725 5724 5722 5720 5719 5718 5716 5715 5714 5714 5713 5713 5708 5704 5701 5705 5706 5705 5705 5704 5702 5694 5690 5687 5686 5687 5685 5683 5684 5683 5682 5680 5679 5677 5674 5671 5669 5668 5667
5728 5726 5725 5723 5722 5721 5718 5716 5716 5714 5712 5711 5710 5710 5711 5710 5707 5702 5699 5698 5699 5700 5700 5700 5697 5689 5684 5681 5679 5679 5677 5674 5677 5678 5677 5677 5675 5674 5672 5668 5664 5661 5658
5724 5722 5720 5719 5718 5717 5714 5713 5711 5710 5710 5710 5709 5708 5708 5707 5704 5699 5695 5693 5691 5692 5694 5690 5687 5682 5678 5675 5672 5671 5669 5670 5672 5672 5671 5670 5669 5667 5664 5660 5657 5653 5650
5718 5717 5715 5714 5712 5712 5711 5710 5709 5708 5708 5707 5706 5705 5704 5703 5701 5698 5694 5689 5685 5684 5684 5681 5677 5674 5672 5670 5669 5666 5664 5665 5666 5664 5664 5663 5662 5659 5655 5652 5649 5647 5644
5714 5712 5711 5711 5709 5706 5703 5700 5701 5699 5699 5699 5700 5700 5698 5696 5693 5690 5691 5689 5687 5684 5681 5677 5675 5673 5670 5667 5665 5664 5662 5659 5657 5655 5654 5652 5650 5648 5645 5643 5639 5637 5634
5708 5707 5707 5706 5703 5700 5696 5692 5686 5688 5686 5686 5686 5688 5687 5684 5681 5679 5677 5675 5673 5672 5671 5670 5667 5665 5663 5661 5659 5656 5654 5651 5648 5646 5643 5640 5638 5637 5635 5632 5629 5625 5622
5702 5701 5702 5701 5698 5694 5692 5689 5684 5678 5675 5674 5673 5673 5672 5670 5669 5667 5665 5663 5661 5659 5660 5660 5658 5656 5654 5651 5649 5647 5644 5641 5637 5634 5632 5630 5627 5625 5622 5620 5617 5614 5612
5694 5693 5692 5691 5690 5688 5686 5683 5681 5677 5673 5669 5663 5661 5660 5659 5657 5655 5654 5653 5652 5650 5651 5650 5647 5645 5642 5639 5636 5634 5632 5629 5626 5622 5620 5617 5615 5612 5609 5607 5605 5601 5599
5686 5685 5684 5683 5682 5680 5678 5675 5672 5669 5666 5661 5658 5654 5649 5647 5645 5643 5642 5644 5644 5641 5638 5636 5633 5631 5628 5626 5623 5620 5618 5616 5613 5610 5608 5604 5601 5599 5596 5594 5593 5589 5585
5675 5673 5674 5674 5673 5670 5667 5665 5661 5658 5655 5651 5648 5645 5641 5640 5638 5634 5631 5631 5630 5628 5625 5622 5619 5617 5614 5611 5608 5606 5604 5602 5600 5598 5595 5592 5589 5586 5584 5582 5580 5578 5576
5665 5664 5662 5663 5661 5659 5656 5653 5650 5646 5643 5640 5636 5632 5628 5631 5628 5624 5621 5619 5616 5613 5610 5607 5605 5602 5599 5596 5594 5592 5590 5589 5586 5584 5581 5579 5577 5574 5572 5570 5568 5566 5564
5655 5654 5652 5651 5648 5645 5643 5641 5638 5634 5630 5626 5622 5618 5614 5616 5615 5610 5606 5603 5600 5596 5594 5591 5590 5586 5583 5581 5578 5576 5575 5573 5571 5569 5566 5565 5563 5561 5559 5558 5555 5553 5551
5643 5642 5640 5637 5634 5629 5629 5626 5622 5619 5615 5611 5607 5604 5601 5598 5595 5592 5589 5585 5582 5580 5577 5574 5572 5569 5566 5564 5561 5559 5557 5555 5552 5549 5548 5548 5548 5546 5544 5543 5541 5539 5538
5629 5627 5625 5623 5620 5617 5613 5610 5606 5603 5599 5595 5591 5587 5584 5580 5576 5573 5570 5567 5564 5562 5559 5557 5554 5552 5549 5547 5545 5542 5538 5534 5533 5533 5531 5531 5531 5531 5530 5528 5527 5525 5523
5613 5611 5610 5607 5604 5601 5598 5595 5591 5588 5584 5579 5575 5571 5567 5564 5560 5557 5553 5550 5547 5545 5543 5541 5538 5536 5533 5531 5528 5525 5520 5518 5516 5515 5515 5516 5516 5515 5515 5514 5512 5511 5509
5597 5596 5594 5592 5589 5586 5583 5580 5576 5572 5568 5563 5559 5555 5551 5548 5544 5541 5537 5534 5531 5529 5527 5525 5522 5520 5517 5515 5511 5508 5505 5503 5502 5500 5500 5502 5503 5502 5500 5500 5498 5497 5496